Location: ??????
(38.0131°N, 23.7723°E)
Time: 05:26:37
(UTC+00:00)

Iridium 4 Rocket - Pass Details

Date: 17 October 2021
Orbit: 586 x 903 km, 86.9° (Epoch: 28 November)

Event Time Altitude Azimuth Distance (km) Brightness Sun altitude
Rises 17:04:27 0° 1° (N) 2,910 6.5 -16.5°
Reaches altitude 10° 17:06:37 10° 5° (N) 2,034 5.7 -16.9°
Maximum altitude 17:11:04 66° 87° (E) 736 3.1 -17.8°
Drops below altitude 10° 17:15:54 10° 170° (S) 2,201 5.7 -18.8°
Sets 17:18:19 0° 173° (S) 3,171 6.6 -19.2°
